Weather History for Morgantown, WV

Change the Weather History Date:

Wednesday, December 20, 2006

  Actual Average Record
Temperature  
Mean Temperature 39 °F 34 °F  
Max Temperature 54 °F 41 °F 64 °F (1957)
Min Temperature 24 °F 26 °F 0 °F (1963)
Degree Days  
Heating Degree Days 26 32  
Month to date heating degree days 579  
Since 1 July heating degree days 1627  
Cooling Degree Days 0 0  
Month to date cooling degree days 0  
Year to date cooling degree days 814  
Moisture  
Dew Point 22 °F    
Average Humidity 58    
Maximum Humidity 85    
Minimum Humidity 22    
Precipitation  
Precipitation 0.00 in 0.09 in 0.83 in (1973)
Month to date precipitation 1.94  
Year to date precipitation 40.86  
Sea Level Pressure  
Sea Level Pressure 30.39 in    
Wind  
Wind Speed 0 mph (SSW)    
Max Wind Speed 5 mph    
Max Gust Speed -    
Visibility 9 miles    
Events      
T = Trace of Precipitation, MM = Missing Value Source: NWS Daily Summary

Daily Weather History Graph

Daily Weather History Graph

Search for Another Location

Airport:

Trip Planner

Search our weather history database for the weather conditions in past years. The results will help you decide how hot, cold, wet, or windy it might be!

Date:

Astronomy

Dec. 20, 2006 Rise Set
Actual Time 7:36 AM EST 4:58 PM EST
Civil Twilight 7:05 AM EST 5:28 PM EST
Nautical Twilight 6:32 AM EST 6:02 PM EST
Astronomical Twilight 5:59 AM EST 6:35 PM EST
Moon 8:01 AM EST (12/20) 4:47 PM EST (12/20)
Length of Visible Light 10h 22m
Length of Day
9h 21m
New Moon, 0% of the Moon is Illuminated
Dec 20
New Moon
Dec 27
First Quarter
Jan 3
Full
Jan 11
Last Quarter
Jan 18
New

Hourly Weather History & Observations

Time (EST) Temp. Windchill Dew Point Humidity Pressure Visibility Wind Dir Wind Speed Gust Speed Precip Events Conditions
12:53 AM 28.9 °F - 24.1 °F 82% 30.43 in 8.0 mi Calm Calm - N/A   Clear
1:53 AM 27.0 °F - 23.0 °F 85% 30.45 in 8.0 mi Calm Calm - N/A   Clear
2:53 AM 27.0 °F - 23.0 °F 85% 30.47 in 8.0 mi Calm Calm - N/A   Clear
3:53 AM 27.0 °F - 23.0 °F 85% 30.47 in 8.0 mi Calm Calm - N/A   Clear
4:53 AM 25.0 °F 20.7 °F 21.0 °F 85% 30.45 in 7.0 mi ESE 3.5 mph - N/A   Clear
5:53 AM 26.1 °F - 21.9 °F 84% 30.44 in 6.0 mi Calm Calm - N/A   Clear
6:53 AM 25.0 °F - 21.0 °F 85% 30.47 in 7.0 mi Calm Calm - N/A   Partly Cloudy
7:53 AM 24.1 °F - 19.9 °F 84% 30.49 in 5.0 mi Calm Calm - N/A   Partly Cloudy
8:53 AM 28.0 °F - 24.1 °F 85% 30.46 in 7.0 mi Calm Calm - N/A   Partly Cloudy
9:53 AM 37.0 °F - 28.0 °F 70% 30.45 in 10.0 mi Calm Calm - N/A   Clear
10:53 AM 41.0 °F - 28.0 °F 60% 30.43 in 10.0 mi Calm Calm - N/A   Scattered Clouds
11:53 AM 46.9 °F - 27.0 °F 46% 30.39 in 10.0 mi Calm Calm - N/A   Clear
12:53 PM 50.0 °F - 21.0 °F 32% 30.35 in 10.0 mi Calm Calm - N/A   Clear
1:53 PM 52.0 °F - 18.0 °F 26% 30.33 in 10.0 mi NW 3.5 mph - N/A   Clear
2:53 PM 53.1 °F - 18.0 °F 25% 30.30 in 10.0 mi Calm Calm - N/A   Clear
3:53 PM 54.0 °F - 16.0 °F 22% 30.32 in 10.0 mi Calm Calm - N/A   Clear
4:53 PM 51.1 °F - 14.0 °F 23% 30.31 in 10.0 mi Calm Calm - N/A   Clear
5:53 PM 46.0 °F - 17.1 °F 31% 30.33 in 10.0 mi Calm Calm - N/A   Clear
6:53 PM 45.0 °F - 19.0 °F 36% 30.34 in 10.0 mi Calm Calm - N/A   Clear
7:53 PM 41.0 °F 38.0 °F 21.0 °F 45% 30.35 in 10.0 mi SSW 4.6 mph - N/A   Clear
8:53 PM 39.9 °F - 21.9 °F 49% 30.34 in 10.0 mi Calm Calm - N/A   Clear
9:53 PM 37.9 °F - 25.0 °F 60% 30.34 in 10.0 mi Calm Calm - N/A   Clear
10:53 PM 39.0 °F - 24.1 °F 55% 30.32 in 10.0 mi Calm Calm - N/A   Partly Cloudy
11:53 PM 39.0 °F - 24.1 °F 55% 30.32 in 10.0 mi Calm Calm - N/A   Partly Cloudy